Location: Washington Hebrew Temple (historical)
(38.9004°N, 77.0233°W)
Time: 03:47:27
(UTC+00:00)

Daily predictions for brighter satellites

Satellite Brightness Start Highest point End
(mag) Time Altitude Azimuth Time Altitude Azimuth Time Altitude Azimuth
USA 238 DEB 4.0 00:47:08 10° NNW 00:54:31 78° NE 01:02:08 10° SE
USA 238 4.0 00:47:14 10° NNW 00:54:36 77° NE 01:02:15 10° SE
Cosmos 44 Rocket 4.3 00:50:43 10° SSE 00:55:00 27° ESE 00:59:22 10° NE
CSL-04 Rocket 4.3 00:50:54 10° S 00:56:18 61° WSW 01:01:40 10° NNW
Ariane Rocket 3.4 00:58:39 10° SE 01:03:29 47° ENE 01:08:20 10° N
ERS-2 2.5 01:02:58 10° NNE 01:06:27 42° E 01:09:55 10° S
SEDSat Delta rocket 4.3 01:03:50 10° SSW 01:06:46 19° SSE 01:09:41 10° ESE
Helios 1A Rocket 3.0 01:03:18 10° SSE 01:07:18 84° WSW 01:11:23 10° NNW
OAO 2 Rocket 3.5 01:04:39 10° WSW 01:09:36 56° S 01:14:27 10° ESE
Cosmos 1818 4.3 01:05:03 10° SW 01:10:25 61° NW 01:15:51 10° NNE
MOS 1 4.3 01:10:15 10° SSE 01:15:53 71° ENE 01:21:31 10° N
Cosmos 2221 3.7 01:12:49 10° NNE 01:16:23 25° ENE 01:19:21 13° SE
Cosmos 1242 Rocket 3.2 01:13:38 10° N 01:17:00 36° ENE 01:19:51 13° SE
BREEZE-M DEB (TANK) 2.7 01:15:11 10° SSW 01:17:52 48° SE 01:24:53 10° ENE
USA 307 2.9 01:13:38 10° NW 01:17:55 82° NE 01:21:34 14° SE
Cosmos 1697 Rocket 3.4 01:18:07 10° N 01:23:24 38° ENE 01:27:44 14° SE
Meteor 2-13 Rocket 4.5 01:19:44 10° S 01:25:45 63° E 01:31:47 10° NNE
Cosmos 2082 Rocket 2.7 01:22:48 10° S 01:27:54 37° ESE 01:33:02 10° NE
Hubble Space Telescope 2.5 01:28:13 10° SSW 01:30:51 17° S 01:31:57 15° SSE
IGS 5A 3.7 01:27:48 14° SSE 01:31:16 53° ENE 01:35:19 10° N
Cosmos 1833 Rocket 2.7 01:25:58 10° SSW 01:31:36 86° ESE 01:37:16 10° NNE
Cosmos 1953 Rocket 3.9 01:27:41 10° SSW 01:32:09 69° W 01:36:38 10° N
SPOT 3 Rocket 4.0 01:28:48 14° SE 01:33:04 47° ENE 01:38:05 10° N
USA 305 3.1 01:30:29 10° NW 01:34:38 64° SW 01:37:38 18° SSE
Cosmos 1606 3.9 01:31:32 10° NNE 01:34:39 25° ENE 01:36:14 19° ESE
USA 308 3.0 01:30:31 10° NW 01:34:46 72° SW 01:37:46 19° SE
Cosmos 773 Rocket 4.1 01:31:50 10° S 01:36:52 51° ESE 01:41:54 10° NNE
Resurs 1-3 3.9 01:34:12 10° S 01:38:33 67° WSW 01:42:56 10° NNW
Cosmos 1125 Rocket 4.0 01:37:47 10° NNW 01:43:01 59° WSW 01:48:13 10° S
Cosmos 2279 Rocket 3.9 01:40:49 10° N 01:47:02 84° E 01:52:57 11° S
Cosmos 2151 4.2 01:47:17 21° ESE 01:48:12 23° E 01:51:31 10° NE
SWAS 4.4 01:44:41 10° NNW 01:48:59 89° E 01:51:39 22° SSE
Landsat 7 3.8 01:49:10 17° SSE 01:52:51 83° ENE 01:57:37 10° N
Cosmos 2058 3.3 01:50:34 10° SSW 01:54:41 66° W 01:58:51 10° N
COSMOS 2406 3.6 01:49:11 10° SSW 01:54:48 68° WNW 02:00:30 10° NNE
Cosmos 1825 3.7 01:52:37 10° SSW 01:56:06 36° WNW 01:59:36 10° N
Cosmos 1842 Rocket 3.6 01:52:14 10° N 01:56:42 69° E 01:59:20 24° SSE
GP-B 4.5 01:53:24 10° NE 01:56:47 21° E 01:57:26 20° E
Cosmos 2369 4.0 01:52:46 10° NNW 01:58:18 52° ENE 02:01:22 25° SE
USA 306 3.8 01:54:38 10° WNW 01:58:37 39° SW 02:00:51 22° S
OBJECT-B 4.0 01:59:40 10° WSW 02:00:13 10° W 02:00:45 10° W
ERS-1 Rocket 4.1 02:00:52 22° ESE 02:02:50 29° ENE 02:07:08 10° N
Spot 2 Rocket 4.0 02:01:34 26° SE 02:03:58 44° ENE 02:08:49 10° N
Cosmos 1076 Rocket 3.5 02:02:52 23° S 02:05:27 66° E 02:09:47 10° NNE
Atlas Centaur 2 3.3 02:04:04 10° SSW 02:04:35 12° SSW 02:04:35 12° SSW
ATLAS 2AS CENTAUR R/B 3.3 01:59:11 10° SW 02:07:05 74° NW 02:14:54 10° NNE
Cosmos 1980 Rocket 2.7 02:04:09 10° N 02:09:34 46° ENE 02:12:06 28° ESE
Resurs 01 Rocket 2.3 02:08:51 16° S 02:12:09 51° W 02:16:30 10° NNW
Nadezhda 4 Rocket 3.9 02:07:55 14° S 02:13:18 78° E 02:19:30 10° N
Cosmos 2322 Rocket 4.4 02:14:04 10° NNE 02:16:23 12° NE 02:18:40 10° ENE
Cosmos 1538 Rocket 4.0 02:13:44 22° S 02:16:58 59° ESE 02:22:05 10° NNE
Cosmos 1437 4.3 02:15:48 10° NW 02:18:10 26° W 02:19:12 20° SW
Cosmos 158 Rocket 4.3 02:18:29 35° SE 02:19:50 43° ESE 02:24:44 10° NNE
RESURS DK-1 2.5 02:18:42 10° SSW 02:22:50 75° WNW 02:27:00 10° NNE
Cosmos 2098 Rocket 2.3 02:22:42 54° SW 02:23:08 66° W 02:26:12 10° N
OAO 3 Copernicus 4.4 02:20:35 10° WSW 02:25:29 55° S 02:26:48 42° SE
GENESIS II 4.1 02:21:58 10° NNW 02:25:52 77° ENE 02:26:31 58° SE
Meteor 2-19 Rocket 4.4 02:22:44 27° SSE 02:26:06 66° E 02:32:06 10° NNE
USA 245 4.1 02:22:59 28° SSE 02:26:07 87° WSW 02:31:06 10° NNW
USA 267 3.1 02:20:09 10° NE 02:26:41 68° SE 02:33:11 10° SW
Cosmos 1271 Rocket 4.1 02:24:50 10° NNE 02:28:02 26° ENE 02:28:02 26° ENE
ATLAS 3B R/B 3.3 02:22:12 10° NNW 02:29:06 49° NE 02:32:46 28° ESE
Cosmos 1633 3.4 02:29:09 25° SW 02:30:56 48° W 02:34:27 10° N
SPOT 1/Viking Rocket 3.8 02:28:25 27° S 02:31:13 66° WSW 02:36:24 10° NNW
ISS -0.9 02:34:04 10° NNW 02:35:50 14° NNE 02:37:38 10° NE
ARIANE 5 R/B 2.5 02:38:33 54° SSE 02:39:33 82° ENE 02:44:03 10° N
Cosmos 1933 3.5 02:37:06 10° N 02:41:03 53° ENE 02:41:03 53° ENE
SL-16 R/B 3.6 02:37:24 10° N 02:42:00 25° NE 02:43:41 22° E
SPOT 5 2.5 02:44:08 63° SE 02:44:40 72° ENE 02:48:59 10° N
Cosmos 304 Rocket 4.5 02:43:25 10° N 02:47:54 38° ENE 02:48:21 37° E
CARTOSAT-1 3.9 02:51:42 47° SSW 02:52:36 57° W 02:56:52 10° NNW
OAO 2 Rocket 4.0 02:49:25 10° W 02:53:28 36° SSW 02:53:28 36° SSW
Meteor 1-26 Rocket 4.2 02:57:14 10° N 03:03:15 77° E 03:04:28 57° SSE
Cosmos 923 Rocket 3.9 03:03:16 64° SE 03:03:43 68° ESE 03:09:02 10° NNE
Cosmos 371 Rocket 3.2 02:59:51 10° NNW 03:04:40 77° WSW 03:05:07 69° SSW
Terra 1.6 03:04:43 75° SE 03:05:04 83° ENE 03:09:51 10° N
ERBS 3.9 03:03:44 10° NW 03:05:39 33° NW 03:05:39 33° NW
Cosmos 1697 Rocket 4.2 03:02:23 10° NW 03:07:09 28° WSW 03:09:29 21° SW
Cosmos 2082 Rocket 4.0 03:07:07 10° WSW 03:12:00 30° WNW 03:16:56 10° N
Cosmos 2278 3.9 03:09:48 10° NNW 03:15:23 62° WSW 03:16:22 53° SSW
Cosmos 1766 Rocket 3.7 03:18:52 68° NNE 03:18:52 68° NNE 03:22:44 10° N
Meteor 2-14 Rocket 4.4 03:17:55 60° SE 03:18:39 65° E 03:24:43 10° NNE
BREEZE-M R/B 4.4 03:14:34 10° SW 03:23:48 - ENE 03:17:24 26° SW
Cosmos 1812 4.2 03:17:04 10° N 03:19:23 29° NNE 03:19:23 29° NNE
Cosmos 1782 3.4 03:20:03 10° N 03:23:15 54° NNW 03:23:15 54° NNW
Cosmos 2333 Rocket 4.5 03:23:04 10° NNE 03:25:32 13° NE 03:27:39 11° ENE
Cosmos 2360 Rocket 3.5 03:27:31 10° N 03:32:18 28° ENE 03:33:01 27° ENE
Cosmos 1328 Rocket 4.1 03:30:28 10° N 03:34:03 56° N 03:34:03 56° N
Cosmos 2112 Rocket 4.0 03:38:50 82° NNE 03:38:50 82° NNE 03:43:55 10° NNE
Cosmos 332 Rocket 4.2 03:35:10 10° NNW 03:39:38 57° W 03:39:38 57° W
Cosmos 1680 Rocket 3.5 03:40:31 74° W 03:40:41 75° WNW 03:45:59 10° NNE
ERS-1 Rocket 4.2 03:40:52 29° WSW 03:41:31 30° W 03:45:56 10° NW
Cosmos 1151 Rocket 3.8 03:41:14 10° NNW 03:44:42 48° NW 03:44:42 48° NW
Cosmos 1980 Rocket 3.8 03:48:54 10° NW 03:53:11 23° W 03:53:52 22° WSW
BREEZE-M DEB (TANK) 3.6 03:49:22 10° WNW 03:53:48 76° SW 03:55:45 55° SSE
Cosmos 2322 Rocket 2.2 03:55:42 10° NNW 04:00:59 76° NNE 04:00:59 76° NNE
Meteor 2-6 Rocket 4.4 04:05:44 10° NNW 04:10:37 59° WNW 04:10:37 59° WNW
ISS -0.6 04:09:57 10° NW 04:10:34 14° NW 04:10:34 14° NW
Cosmos 2315 Rocket 4.1 04:11:26 10° N 04:17:33 62° ENE 04:17:33 62° ENE
ATLAS 3B R/B 3.6 04:13:13 10° NW 04:19:39 36° WSW 04:20:00 36° WSW
Cosmos 2237 4.3 04:15:19 10° NNW 04:20:24 72° NNW 04:20:24 72° NNW
Meteor 1-27 Rocket 3.9 04:17:35 10° N 04:22:32 66° NNE 04:22:32 66° NNE
Cosmos 1624 Rocket 4.5 04:18:04 10° NNW 04:22:13 57° NNW 04:22:13 57° NNW
COSMOS 2428 4.3 04:18:57 10° N 04:23:29 24° NE 04:24:20 23° ENE
SL-16 R/B 2.9 04:20:55 10° NW 04:25:32 44° W 04:25:32 44° W
Cosmos 2219 Rocket 3.4 04:24:26 10° N 04:29:23 31° ENE 04:29:34 31° ENE
Cosmos 1655 Rocket 4.5 04:32:56 49° W 04:33:30 51° W 04:39:42 10° N
Cosmos 2266 Rocket 4.4 04:37:31 52° W 04:37:42 52° W 04:43:42 10° N
USA 234 3.1 04:41:00 87° SSW 04:41:03 87° SW 04:47:39 10° NW
COSMOS 2455 3.2 04:44:29 57° NE 04:44:29 57° NE 04:49:17 10° NNE
BREEZE-M DEB (TANK) 4.2 04:34:00 10° WSW 04:48:04 84° NNW 04:52:19 10° ENE
Cosmos 1452 Rocket 4.3 04:47:57 10° NNW 04:52:03 49° NNE 04:52:03 49° NNE
ALOS 2 4.2 04:56:16 31° NNW 04:56:16 31° NNW 04:58:41 10° NNW
ATLAS 5 CENTAUR R/B 4.0 05:05:08 10° NNW 05:09:56 27° NE 05:12:56 19° E
Cosmos 2333 Rocket 2.6 05:05:01 10° NNW 05:09:38 60° N 05:09:38 60° N
Lacrosse 5 4.4 05:18:45 12° ENE 05:18:45 12° ENE 05:19:13 10° ENE
Cosmos 2360 Rocket 3.4 05:11:09 10° NW 05:14:46 33° WNW 05:14:46 33° WNW
Resurs 1-4 Rocket 4.4 05:20:23 10° ENE 05:22:21 13° E 05:22:21 13° E
Nadezhda 1 Rocket 4.3 05:19:06 10° N 05:25:20 59° ENE 05:25:20 59° ENE
Cosmos 2322 4.2 05:20:10 10° NNW 05:24:37 55° NW 05:24:37 55° NW
NOSS 3-1 (C) 4.0 05:22:12 10° NNW 05:30:02 90° SW 05:31:18 69° SSE
Cosmos 2297 Rocket 3.2 05:37:04 37° ENE 05:37:04 37° ENE 05:41:07 10° NE
USA 229 DEB 4.1 05:34:01 10° NNW 05:41:26 70° NE 05:43:12 54° ESE
USA 229 4.1 05:34:06 10° NNW 05:41:32 70° NE 05:43:21 53° ESE
Cosmos 2237 Rocket 3.3 05:38:34 10° N 05:43:48 37° ENE 05:44:35 35° ENE
Cosmos 2227 Rocket 3.3 05:47:43 35° E 05:47:43 35° E 05:51:50 10° NE
Cosmos 1269 Rocket 4.5 06:01:46 57° NNE 06:01:46 57° NNE 06:05:59 10° NNE
Meteor 2-4 Rocket 4.0 05:55:00 10° NNW 06:00:14 68° NW 06:00:14 68° NW
CZ-2D R/B 3.4 05:56:40 10° NE 06:01:02 31° E 06:01:02 31° E
NOSS 3-1 (A) 4.1 05:54:05 10° NNW 06:01:56 89° ENE 06:04:02 57° SSE
ADEOS II 4.3 06:00:33 10° ENE 06:03:25 15° E 06:03:49 15° E
SL-16 R/B 4.4 06:03:07 10° N 06:07:20 21° NE 06:11:31 10° ESE
COSMOS 2428 3.7 06:02:32 10° NNW 06:06:19 37° WNW 06:06:19 37° WNW
Cosmos 2219 Rocket 3.6 06:08:17 10° NW 06:11:15 26° WNW 06:11:15 26° WNW
Helios 1A 4.3 06:17:21 38° NNE 06:17:21 38° NNE 06:20:06 10° N
Okean 1-7 4.4 06:18:25 10° N 06:20:56 35° N 06:20:56 35° N
Cosmos 1302 Rocket 4.4 06:19:27 10° NNW 06:23:41 59° NNW 06:23:41 59° NNW
Cosmos 909 Rocket 4.0 06:32:17 76° SW 06:32:52 89° WNW 06:40:11 10° NNE
Cosmos 2219 3.2 06:34:37 74° NW 06:34:37 74° NW 06:40:15 10° NNE
Cosmos 1709 Rocket 4.2 06:37:29 56° W 06:37:37 56° W 06:43:52 10° N
NOSS 0 Rocket 4.3 06:33:32 10° NNW 06:38:37 48° WNW 06:38:37 48° WNW
Helios 1B rocket 3.9 06:35:47 10° NNE 06:38:41 33° ENE 06:38:41 33° ENE
Cosmos 1066 Rocket 4.1 06:35:45 10° N 06:41:39 89° W 06:41:47 86° SSW
MOZ.5/SAFIR/RUBIN 5/SL-8 4.5 06:47:17 46° NW 06:47:17 46° NW 06:50:46 10° NNW
Timation 2 Rocket 3.7 06:46:12 81° SW 06:46:30 87° WNW 06:52:35 10° NNE
Cosmos 2084 Rocket 4.2 06:49:07 10° NNW 06:52:38 52° N 06:52:38 52° N
IDEFIX/ARIANE 42P 4.2 06:49:57 10° NE 06:54:06 24° E 06:55:37 21° ESE
Cosmos 2082 3.6 06:54:29 72° SE 06:54:49 74° ESE 07:00:33 10° NNE
ATLAS 5 CENTAUR R/B 2.5 06:49:05 10° NW 06:54:21 58° W 06:54:21 58° W
Cosmos 2251 Rocket 3.5 06:56:04 70° ESE 06:56:08 70° ESE 07:01:25 10° NNE
Meteor 1-11 Rocket 4.1 06:56:39 48° WNW 06:56:39 48° WNW 07:01:53 10° N
Cosmos 1536 4.4 06:58:20 28° NNW 06:58:20 28° NNW 07:00:37 10° N
Lacrosse 5 2.1 06:57:56 59° NW 06:58:01 59° NW 07:03:02 10° NE
Cosmos 2184 Rocket 3.9 06:59:24 61° SSE 07:00:33 79° E 07:06:50 10° N
SL-16 R/B 2.4 07:00:09 60° SSE 07:01:25 89° WSW 07:07:37 10° NNW
Resurs 1-4 Rocket 2.1 06:58:00 10° N 07:03:17 68° WNW 07:03:26 67° W
Cosmos 1980 4.4 06:58:14 10° NW 07:02:27 39° WNW 07:02:27 39° WNW
Cosmos 1241 Rocket 4.5 07:05:28 60° S 07:06:43 81° ESE 07:13:17 10° NNE
Cosmos 2154 Rocket 4.3 07:05:52 43° SSE 07:07:42 61° E 07:13:48 10° NNE
Cosmos 1733 Rocket 3.1 07:13:20 77° ENE 07:13:20 77° ENE 07:17:37 10° N
SL-8 R/B 4.0 07:15:14 56° ESE 07:15:14 56° ESE 07:19:33 10° ENE
Cosmos 1140 Rocket 4.4 07:14:54 34° SE 07:16:11 39° ESE 07:21:02 10° NE
Cosmos 2297 Rocket 3.5 07:18:52 25° WNW 07:19:58 27° WNW 07:24:44 10° N
AQUA 3.7 07:16:53 10° N 07:21:38 69° WNW 07:21:46 68° W
NPP 3.8 07:18:10 10° N 07:23:28 57° WNW 07:24:07 53° WSW
Cosmos 2074 Rocket 4.0 07:23:14 53° SW 07:24:30 64° W 07:30:41 10° N
Cosmos 2237 Rocket 3.4 07:22:50 10° NW 07:26:23 27° W 07:26:23 27° W
ADEOS Rocket 2.7 07:29:11 53° SSW 07:30:24 69° WSW 07:35:53 10° NNW
Cosmos 2227 Rocket 3.4 07:29:32 27° W 07:30:45 29° WNW 07:35:37 10° N
Okean 2 4.3 07:27:41 10° N 07:31:43 46° E 07:33:05 33° SE
ARIANE 5 R/B 4.3 07:27:38 10° NE 07:31:53 25° E 07:35:20 13° SE
CZ-2D R/B 3.1 07:36:41 10° N 07:41:24 32° WNW 07:42:21 30° W
Meteor 1-28 Rocket 3.1 07:41:29 74° ESE 07:41:42 78° ENE 07:45:26 10° N
Cosmos 192 4.2 07:37:41 10° NNW 07:42:36 74° WSW 07:43:45 51° S
ADEOS II 2.1 07:38:19 10° N 07:43:31 63° WNW 07:44:44 48° SW
Meteor 2-9 Rocket 4.0 07:43:10 51° SW 07:44:22 67° W 07:49:42 10° N
NOSS 3-3 (A) 3.9 07:44:35 41° S 07:46:34 70° ESE 07:52:48 10° NE
NOSS 3-3 (C) 3.9 07:44:42 41° S 07:46:40 69° ESE 07:52:53 10° NE
IRS-1D 3.4 07:42:22 10° N 07:47:20 78° WNW 07:48:42 49° SSW
SL-16 R/B 2.2 07:46:17 10° NNW 07:51:49 57° WSW 07:53:48 38° SSW
Iridium 4 Rocket 3.7 07:47:44 10° N 07:53:17 73° W 07:55:47 35° SSW
MINOTAUR 4 R/B 4.4 07:55:21 50° WNW 07:55:21 50° WNW 07:58:22 10° NNW
Cosmos 2263 Rocket 2.2 07:54:30 38° SSW 07:56:47 85° ESE 08:02:30 10° NNE
Cosmos 1975 3.2 07:57:17 46° W 07:57:28 46° W 08:01:25 10° N
ATLAS CENTAUR R/B 1.8 07:57:40 39° SSE 07:58:22 44° ESE 08:02:04 10° NE
Cosmos 2221 Rocket 4.4 07:57:21 10° NNW 08:01:26 33° W 08:01:26 33° W
Landsat 4 3.9 07:58:24 10° N 08:01:59 50° WNW 08:02:12 49° W
Cosmos 407 Rocket 3.5 08:01:06 40° SW 08:03:00 69° WNW 08:08:17 10° NNE
CZ-4C R/B 3.4 07:55:46 10° NNW 08:03:12 66° NE 08:11:41 10° SE
Cosmos 1461 3.4 08:05:09 40° WSW 08:06:27 55° WNW 08:10:53 10° NNE
Cosmos 1707 2.5 08:04:50 10° N 08:08:41 85° W 08:10:01 39° S
Cosmos 2344 3.5 08:04:50 29° SW 08:09:03 80° NW 08:16:42 10° NNE
Cosmos 2341 Rocket 3.9 08:06:43 25° S 08:10:36 85° W 08:16:52 10° N
Meteor 1-29 4.3 08:08:12 10° NNW 08:10:46 25° WNW 08:10:46 25° WNW
Spot 1 4.3 08:08:40 10° SSE 08:12:48 64° ENE 08:16:51 10° N
Cosmos 2218 Rocket 4.3 08:07:38 14° S 08:13:07 66° E 08:19:24 10° NNE
Helios 1B rocket 4.3 08:11:58 10° NNW 08:14:32 16° WNW 08:14:58 16° WNW
In-Cosmos 22 4.3 08:09:12 10° N 08:15:01 87° E 08:20:44 10° S
Cosmos 1674 Rocket 4.1 08:13:34 10° NNW 08:17:41 39° W 08:18:39 34° WSW
Cosmos 1238 Rocket 3.7 08:18:43 24° WNW 08:18:43 24° WNW 08:21:08 10° NNW
SL-08 R/B 4.2 08:15:16 10° SSE 08:20:03 54° ENE 08:24:53 10° N
COSMOS 2441 4.3 08:17:59 10° N 08:22:48 79° WNW 08:25:38 25° SSW
Nadezhda 3 Rocket 4.5 08:17:21 10° NNW 08:23:15 42° W 08:26:34 24° SW
BREEZE-M DEB (TANK) 3.8 08:30:27 23° WNW 08:31:27 31° NNW 08:33:33 10° NE
Cosmos 1943 3.5 08:25:44 10° NNW 08:31:28 72° ENE 08:37:08 10° SSE
IRS-P3 4.1 08:27:14 10° N 08:32:33 70° WNW 08:36:16 20° SSW
IDEFIX/ARIANE 42P 3.2 08:29:00 10° N 08:33:45 38° WNW 08:36:25 22° WSW
CZ-3 Stage 3 3.2 08:34:31 12° SSE 08:35:56 14° SE 08:38:58 10° ESE
Cosmos 1975 Rocket 3.2 08:31:39 10° N 08:36:03 73° E 08:40:23 10° SSE
CZ-2C R/B 2.9 08:34:13 10° NNE 08:38:42 54° E 08:43:13 10° S
Cosmos 1340 2.6 08:37:09 10° N 08:40:54 89° NE 08:44:38 10° S
Cosmos 1900 4.4 08:37:53 20° SSW 08:41:23 82° ESE 08:46:22 10° NNE
Lacrosse 5 4.2 08:38:51 10° WNW 08:41:57 16° NNW 08:45:02 10° NNE
USA 215 3.3 08:36:08 10° NE 08:42:42 81° SE 08:47:58 17° SW
Cosmos 1400 Rocket 2.8 08:40:32 15° S 08:43:41 80° E 08:47:35 10° NNE
Cosmos 1626 2.7 08:41:30 10° N 08:45:10 59° E 08:48:47 10° SSE
SL-16 R/B 4.3 08:45:15 11° W 08:45:46 12° W 08:47:48 10° WNW
Meteor 1-12 Rocket 4.2 08:45:08 13° SSW 08:50:07 70° W 08:55:49 10° N
Cosmos 1674 2.7 08:47:28 10° NNW 08:51:16 60° W 08:55:01 10° S
BREEZE-M DEB (TANK) 4.5 08:46:05 10° WSW 08:55:04 39° NW 08:58:11 10° NE
Cosmos 1850 Rocket 4.5 08:54:30 10° S 08:59:44 62° ESE 09:04:57 10° NNE
Cosmos 1821 Rocket 4.2 09:00:02 10° S 09:06:10 74° E 09:12:16 10° N
CZ-4B R/B 3.8 09:01:44 10° N 09:06:22 46° WNW 09:10:43 11° SW
ASTRO E2 3.8 09:05:37 15° SW 09:08:07 27° S 09:11:31 10° ESE
Cosmos 1025 Rocket 3.0 09:05:43 10° N 09:10:02 84° W 09:14:22 10° S
Cosmos 44 3.5 09:05:09 10° NW 09:10:09 51° WSW 09:14:49 10° S
Cosmos 1844 Rocket 3.0 09:04:49 10° SSW 09:10:25 71° ESE 09:16:05 10° NNE
ARIANE 5 R/B 3.3 09:06:16 10° N 09:11:00 37° WNW 09:15:40 10° SW
BREEZE-M DEB (TANK) 3.3 09:08:21 10° NW 09:11:11 51° NNE 09:14:44 10° ESE
Iridium 51 3.9 09:09:58 10° S 09:13:25 83° W 09:16:54 10° N
FENGYUN 3A 3.7 09:12:46 10° NNE 09:18:14 85° WNW 09:23:38 10° SSW
CZ-2D R/B 4.3 09:15:13 10° N 09:18:48 32° WNW 09:22:25 10° SW
Cosmos 1603 4.0 09:13:32 10° NW 09:18:51 44° WSW 09:24:08 10° S
Milstar 3 3.8 09:15:44 10° SW 09:21:30 30° SSE 09:27:39 10° ESE
Okean 2 Rocket 3.2 09:18:49 10° SSW 09:23:17 65° W 09:27:47 10° N
Spot 4 Rocket 4.4 09:18:25 10° N 09:23:23 49° WNW 09:28:18 10° SW
DNEPR-1 R/B 4.5 09:18:57 10° SSW 09:24:38 62° ESE 09:29:23 10° NE
CZ-2C R/B 2.9 09:22:01 10° N 09:25:39 55° WNW 09:29:19 10° SSW
Sich 1 Rocket 4.2 09:25:20 10° SW 09:29:24 37° WNW 09:33:30 10° N
MOS 1 Rocket 3.5 09:26:24 10° S 09:31:24 81° WSW 09:36:43 10° NNW
Cosmos 1867 4.2 09:26:09 10° SSW 09:31:27 58° ESE 09:36:49 10° NE
NOSS 3-4 (A) 4.4 09:25:09 10° NNW 09:32:16 70° NE 09:40:10 10° SE
NOSS 3-4 (C) 4.4 09:25:15 10° NNW 09:32:23 69° NE 09:40:17 10° SE
CZ-3 R/B 3.9 09:16:07 10° SW 09:39:01 36° S 09:46:24 10° ESE
